FLOCK 2E'-10 (41576 NORAD) Tracking and Keplerian Element Data

This shows tracking and keplerian element data for the satellite.

Feedback or suggestion? Click here.




ElementValue
Catalog41576
NameFLOCK 2E'-10
Epoch Orbit9812
Epoch Day47.65400982
Epoch Year2018
RAAN187.1174
Inclination51.6201
Eccentricity0.0004788
Argument of Perigee324.9504
Mean Anonmoly35.0382
Mean Motion16.33417827
Decay Rate0.0729323
L11 41576U 98067KA 18047.65400982 .07293230 12279-4 11048-2 0 9994
L22 41576 51.6201 187.1174 0004788 324.9504 35.0382 16.33417827 98126



Live tracking and technical data element details for FLOCK 2E'-10 (NORAD 41576). FLOCK 2E'-10 can be tracked NOW for your location showing map with azimuth and elevation plus other details from your city location.







IsCatalogInMostPopularTable: catalog: 41576, numindb: 606
Update: records affected: 1



GetName: 41576 FLOCK 2E'-10

Hit Count: updated at: Wed, 04 Dec 2024 12:14:51 GMT